Flag for Germany Weather past 2 weeks in Wertheim, Baden-Württemberg, Germany

Now
38 °F

Fog.


Feels Like: 38 °F
Forecast: 40 / 54 °F
Wind: 1 mph from Southeast

Location: Wuerzburg

Current Time: Oct 24, 2014 at 10:52:54 AM

Latest Report: Oct 24, 2014 at 10:00 AM


Visibility: 0 mi

Pressure: 30.29 "Hg

Humidity: 100%

Dew point: 38 °F

Location of WertheimLocation

Historic Weather in Wertheim — Graph

°F

Wertheim temperature yesterday

Maximum temperature yesterday: 54 °F (at 2:00 PM)
Minimum temperature yesterday: 43 °F (at 11:00 PM)
Average temperature yesterday: 48 °F

Past Weeks' High & Low Weather Summary

 TemperatureHumidityPressure
High75 °F (Oct 9, 4:00 PM)100% (Oct 11, 8:00 AM)30.29 "Hg (Oct 11, 8:00 AM)
Low37 °F (Oct 24, 9:00 AM)51% (Oct 9, 5:00 PM)29.59 "Hg (Oct 21, 7:00 PM)
Average56 °F89%29.96 "Hg
* Reported Oct 9 10:00 AM — Oct 24 10:00 AM, Wertheim, Weather by CustomWeather, © 2014

Note: Actual official high and low records may vary slightly from our data, if they occured in-between our weather recording intervals... More about our weather records

Advertising

Wertheim weather history for previous 24 hours

 ConditionsComfort  
Time TempWeatherWind HumidityBarometerVisibility
10:00 AM
Oct 24
38 °FFog.1 mph100%30.29 "Hg0 mi
9:00 AM37 °FFog.2 mph100%30.28 "Hg0 mi
8:00 AM38 °FFog.1 mph100%30.27 "Hg0 mi
7:00 AM39 °FFog.1 mph100%30.27 "Hg0 mi
6:00 AM37 °FFog.No wind100%30.27 "Hg0 mi
5:00 AM38 °FFog.1 mph99%30.27 "Hg0 mi
4:00 AM39 °FFog.1 mph99%30.28 "Hg1 mi
3:00 AM40 °FFog.1 mph99%30.29 "Hg2 mi
2:00 AM40 °FPassing clouds.2 mph98%30.29 "Hg0 mi
1:00 AM42 °FPassing clouds.1 mph99%30.28 "Hg6 mi
12:00 AM42 °FPassing clouds.2 mph98%30.28 "Hg7 mi
11:00 PM
Oct 23
43 °FPassing clouds.1 mph95%30.28 "Hg10 mi
10:00 PM46 °FPassing clouds.2 mph95%30.27 "Hg12 mi
9:00 PM47 °FPassing clouds.2 mph88%30.26 "Hg16 mi
8:00 PM47 °FPassing clouds.3 mph85%30.26 "Hg19 mi
7:00 PM50 °FOvercast.2 mph78%30.25 "Hg22 mi
6:00 PM51 °FOvercast.2 mph72%30.23 "Hg25 mi
5:00 PM53 °FOvercast.3 mph70%30.23 "Hg25 mi
4:00 PM53 °FOvercast.2 mph69%30.23 "Hg28 mi
3:00 PM53 °FOvercast.3 mph66%30.23 "Hg28 mi
2:00 PM54 °FPartly sunny.5 mph65%30.24 "Hg25 mi
1:00 PM51 °FScattered clouds.5 mph67%30.24 "Hg28 mi
12:00 PM51 °FPartly sunny.5 mph67%30.24 "Hg25 mi
11:00 AM48 °FOvercast.3 mph79%30.24 "Hg28 mi
10:00 AM47 °FOvercast.3 mph79%30.23 "Hg25 mi
Weather by CustomWeather, © 2014

See weather overviewHow to use our weather pages